YO6IKB-10 Weather Reports


time (UTC)temp
C
wind
direction
speed
KPH
gust
KPH
rain 1hr
cm
rain 24hr
cm
rain mn
cm
humidity
%
barometer
mb
20260903025202 12 292 0.0 3.2 0.00 0.00 0.00 82 1016.2
20260903024701 12 292 1.6 3.2 0.00 0.00 0.00 82 1016.1
20260903024201 12 292 0.0 0.0 0.00 0.00 0.00 82 1016.0
20260903023701 12 292 0.0 0.0 0.00 0.00 0.00 81 1016.0
20260903023200 12 292 0.0 1.6 0.00 0.00 0.00 81 1016.1
20260903022700 12 292 1.6 1.6 0.00 0.00 0.00 81 1016.2
20260903022200 12 292 1.6 1.6 0.00 0.00 0.00 81 1016.2
20260903021700 12 292 0.0 1.6 0.00 0.00 0.00 81 1016.2
20260903021159 12 292 0.0 0.0 0.00 0.00 0.00 81 1016.3
20260903020659 12 315 0.0 0.0 0.00 0.00 0.00 81 1016.3
20260903020159 12 292 0.0 0.0 0.00 0.00 0.00 81 1016.5
20260903015658 12 135 0.0 0.0 0.00 0.00 0.00 82 1016.4
20260903015158 12 292 0.0 0.0 0.00 0.00 0.00 82 1016.4
20260903014658 12 292 0.0 0.0 0.00 0.00 0.00 82 1016.3
20260903014157 13 292 0.0 0.0 0.00 0.00 0.00 82 1016.4
20260903013657 13 292 0.0 0.0 0.00 0.00 0.00 82 1016.3
20260903013157 12 292 0.0 1.6 0.00 0.00 0.00 82 1016.4
20260903012657 13 292 0.0 1.6 0.00 0.00 0.00 82 1016.3
20260903012156 12 292 1.6 1.6 0.00 0.00 0.00 82 1016.4
20260903011656 12 292 0.0 0.0 0.00 0.00 0.00 82 1016.3
20260903011156 80 292 0.0 1.6 0.00 0.00 0.00 82 1016.3
20260903010655 12 292 0.0 0.0 0.00 0.00 0.00 81 1016.3
20260903010155 12 292 0.0 0.0 0.00 0.00 0.00 81 1016.4
20260903005655 12 292 0.0 3.2 0.00 0.00 0.00 81 1016.3
20260903005155 12 292 3.2 3.2 0.00 0.00 0.00 80 1016.3
20260903004654 12 292 0.0 0.0 0.00 0.00 0.00 80 1016.3
20260903004154 13 292 0.0 0.0 0.00 0.00 0.00 79 1016.3
20260903003654 12 292 0.0 0.0 0.00 0.00 0.00 79 1016.3
20260903003153 13 292 0.0 1.6 0.00 0.00 0.00 79 1016.4
20260903002653 13 292 1.6 1.6 0.00 0.00 0.00 79 1016.4
20260903002153 13 292 0.0 3.2 0.00 0.00 0.00 79 1016.4
20260903001652 13 292 3.2 6.4 0.00 0.00 0.00 79 1016.5
20260903001152 13 292 3.2 3.2 0.00 0.00 0.00 79 1016.5
20260903000652 13 292 1.6 4.8 0.00 0.00 0.00 80 1016.5
20260903000152 13 337 0.0 3.2 0.00 0.00 0.00 80 1016.3
20260902235651 13 337 3.2 4.8 0.00 0.00 0.00 80 1016.4